Weather History for San Diego, CA

Change the Weather History Date:

Friday, November 30, 2012

  Actual Average Record
Temperature  
Mean Temperature 65 °F 58 °F  
Max Temperature 69 °F 66 °F 85 °F (1964)
Min Temperature 61 °F 50 °F 40 °F (1931)
Degree Days  
Heating Degree Days 0 7  
Month to date heating degree days 90 126  
Since 1 July heating degree days 94 145  
Cooling Degree Days 0 0  
Month to date cooling degree days 16 13  
Year to date cooling degree days 899 720  
Growing Degree Days 16 (Base 50)    
Moisture  
Dew Point 61 °F    
Average Humidity 83    
Maximum Humidity 90    
Minimum Humidity 76    
Precipitation  
Precipitation T in 0.04 in 0.93 in (2007)
Month to date precipitation 0.18 1.01  
Year to date precipitation 4.34 8.81  
Since 1 July precipitation 0.88 1.78  
Snow  
Snow 0.00 in - - ()
Month to date snowfall 0.0  
Year to date snowfall 0.0  
Since 1 July snowfall 0.0  
Snow Depth 0.00 in    
Sea Level Pressure  
Sea Level Pressure 30.15 in    
Wind  
Wind Speed 4 mph (SSW)    
Max Wind Speed 9 mph    
Max Gust Speed 10 mph    
Visibility 6 miles    
Events Rain    
T = Trace of Precipitation, MM = Missing Value Source: NWS Daily Summary

Daily Weather History Graph

Daily Weather History Graph

Search for Another Location

Airport:

Trip Planner

Search our weather history database for the weather conditions in past years. The results will help you decide how hot, cold, wet, or windy it might be!

Date:

Astronomy

Nov. 30, 2012 Rise Set
Actual Time 6:32 AM PST 4:42 PM PST
Civil Twilight 6:05 AM PST 5:09 PM PST
Nautical Twilight 5:35 AM PST 5:39 PM PST
Astronomical Twilight 5:05 AM PST 6:09 PM PST
Moon 6:40 PM PST (11/30) 8:08 AM PST (11/30)
Length of Visible Light 11h 03m
Length of Day
10h 09m
Waning Gibbous, 96% of the Moon is Illuminated
Nov 30
Waning Gibbous
Dec 6
Last Quarter
Dec 13
New
Dec 19
First Quarter
Dec 28
Full

Hourly Weather History & Observations

Time (PST) Temp. Dew Point Humidity Pressure Visibility Wind Dir Wind Speed Gust Speed Precip Events Conditions
12:51 AM 61.0 °F 59.0 °F 93% 30.17 in 6.0 mi Calm Calm - 0.00 in Rain Light Rain
1:51 AM 61.0 °F 57.9 °F 90% 30.16 in 7.0 mi Calm Calm - 0.00 in   Overcast
2:51 AM 62.1 °F 59.0 °F 90% 30.16 in 7.0 mi Calm Calm - N/A   Overcast
3:51 AM 62.1 °F 59.0 °F 90% 30.15 in 7.0 mi Calm Calm - N/A   Overcast
4:51 AM 62.1 °F 59.0 °F 90% 30.15 in 7.0 mi SW 3.5 mph - N/A   Overcast
5:51 AM 62.1 °F 59.0 °F 90% 30.16 in 4.0 mi South 4.6 mph - N/A   Overcast
6:51 AM 62.1 °F 59.0 °F 90% 30.16 in 4.0 mi SSW 5.8 mph - N/A   Mostly Cloudy
7:51 AM 63.0 °F 59.0 °F 87% 30.17 in 4.0 mi South 4.6 mph - N/A   Mostly Cloudy
8:30 AM 62.6 °F 57.2 °F 82% 30.18 in 4.0 mi South 3.5 mph - N/A   Overcast
8:51 AM 64.0 °F 57.9 °F 80% 30.18 in 4.0 mi Calm Calm - N/A   Overcast
9:21 AM 64.4 °F 59.0 °F 83% 30.18 in 4.0 mi South 3.5 mph - N/A   Mostly Cloudy
9:51 AM 64.9 °F 59.0 °F 81% 30.18 in 5.0 mi South 4.6 mph - N/A   Haze
10:51 AM 66.9 °F 59.0 °F 76% 30.17 in 8.0 mi South 4.6 mph - N/A   Overcast
11:19 AM 66.2 °F 59.0 °F 78% 30.16 in 10.0 mi SW 5.8 mph - N/A   Overcast
11:51 AM 66.9 °F 59.0 °F 76% 30.15 in 10.0 mi SSW 5.8 mph - N/A   Overcast
12:51 PM 68.0 °F 60.1 °F 76% 30.14 in 10.0 mi Calm Calm - N/A   Overcast
1:51 PM 66.9 °F 61.0 °F 81% 30.14 in 7.0 mi SW 8.1 mph - N/A   Overcast
2:47 PM 66.2 °F 60.8 °F 83% 30.13 in 10.0 mi SW 6.9 mph - 0.00 in Rain Light Rain
2:51 PM 64.9 °F 61.0 °F 87% 30.13 in 10.0 mi SW 6.9 mph - 0.00 in Rain Light Rain
3:00 PM 64.4 °F 62.6 °F 94% 30.13 in 7.0 mi SW 5.8 mph - 0.00 in   Overcast
3:11 PM 64.4 °F 62.6 °F 94% 30.14 in 4.0 mi SW 4.6 mph - 0.00 in   Overcast
3:22 PM 64.4 °F 62.6 °F 94% 30.14 in 3.0 mi SW 4.6 mph - 0.00 in Rain Light Rain
3:51 PM 64.9 °F 63.0 °F 93% 30.14 in 6.0 mi SSW 4.6 mph - 0.00 in   Overcast
4:12 PM 64.4 °F 62.6 °F 94% 30.14 in 2.5 mi SSW 4.6 mph - 0.01 in Rain Light Rain
4:16 PM 64.4 °F 62.6 °F 94% 30.14 in 1.2 mi SSW 3.5 mph - 0.01 in Rain Light Rain
4:37 PM 64.4 °F 62.6 °F 94% 30.14 in 2.0 mi South 3.5 mph - 0.05 in Rain Light Rain
4:44 PM 64.4 °F 62.6 °F 94% 30.14 in 3.0 mi South 3.5 mph - 0.05 in Rain Light Rain
4:51 PM 64.0 °F 63.0 °F 96% 30.14 in 3.0 mi South 3.5 mph - 0.05 in   Overcast
5:10 PM 64.4 °F 62.6 °F 94% 30.12 in 5.0 mi SSE 5.8 mph - 0.00 in Rain Light Rain
5:32 PM 64.4 °F 62.6 °F 94% 30.13 in 4.0 mi South 3.5 mph - 0.01 in Rain Light Rain
5:51 PM 64.0 °F 63.0 °F 96% 30.13 in 4.0 mi South 4.6 mph - 0.01 in   Overcast
6:03 PM 64.4 °F 62.6 °F 94% 30.13 in 4.0 mi South 4.6 mph - 0.00 in Rain Light Rain
6:39 PM 64.4 °F 62.6 °F 94% 30.11 in 2.5 mi SSE 5.8 mph - 0.01 in Rain Light Rain
6:51 PM 64.0 °F 63.0 °F 96% 30.11 in 2.5 mi SSE 5.8 mph - 0.01 in Rain Light Rain
6:58 PM 64.4 °F 62.6 °F 94% 30.11 in 3.0 mi SSE 8.1 mph - 0.00 in   Overcast
7:31 PM 64.4 °F 62.6 °F 94% 30.11 in 2.5 mi SSE 8.1 mph - 0.00 in Rain Light Rain
7:51 PM 64.0 °F 63.0 °F 96% 30.12 in 2.5 mi South 4.6 mph - 0.00 in   Overcast
7:58 PM 64.4 °F 62.6 °F 94% 30.13 in 1.2 mi South 4.6 mph - 0.01 in Rain Light Rain
8:16 PM 64.4 °F 62.6 °F 94% 30.14 in 2.5 mi SW 3.5 mph - 0.01 in   Overcast
8:30 PM 64.4 °F 62.6 °F 94% 30.14 in 3.0 mi WSW 6.9 mph - 0.01 in Rain Light Rain
8:51 PM 64.0 °F 62.1 °F 93% 30.14 in 5.0 mi SSW 4.6 mph - 0.02 in   Overcast
8:58 PM 64.4 °F 62.6 °F 94% 30.14 in 4.0 mi WSW 5.8 mph - N/A   Overcast
9:06 PM 64.4 °F 62.6 °F 94% 30.14 in 4.0 mi SW 5.8 mph - N/A   Overcast
9:35 PM 64.4 °F 62.6 °F 94% 30.14 in 6.0 mi WSW 3.5 mph - 0.01 in   Overcast
9:49 PM 64.4 °F 62.6 °F 94% 30.15 in 10.0 mi WSW 3.5 mph - 0.01 in   Overcast
9:51 PM 64.0 °F 62.1 °F 93% 30.15 in 10.0 mi WSW 3.5 mph - 0.01 in   Overcast
10:32 PM 64.4 °F 62.6 °F 94% 30.16 in 9.0 mi WNW 3.5 mph - N/A   Mostly Cloudy
10:51 PM 64.0 °F 62.1 °F 93% 30.16 in 7.0 mi Calm Calm - 0.00 in   Mostly Cloudy
11:32 PM 64.4 °F 62.6 °F 94% 30.15 in 10.0 mi Calm Calm - N/A   Mostly Cloudy
11:46 PM 64.4 °F 62.6 °F 94% 30.15 in 10.0 mi WNW 3.5 mph - N/A   Overcast
11:51 PM 64.0 °F 62.1 °F 93% 30.15 in 9.0 mi Calm Calm - N/A   Overcast